| time (UTC) | temp F | wind direction | speed MPH | gust MPH | rain 1hr in | rain 24hr in | rain mn in | humidity % | barometer mb |
| 20260507105242 | 49 | 282 | 5.0 | 8.0 | 0.00 | 0.00 | 0.00 | 85 | 1007.5 |
| 20260507104739 | 49 | 326 | 5.0 | 12.0 | 0.00 | 0.00 | 0.00 | 85 | 1007.3 |
| 20260507104236 | 48 | 329 | 2.0 | 6.0 | 0.00 | 0.00 | 0.00 | 85 | 1007.1 |
| 20260507103732 | 49 | 331 | 3.0 | 6.0 | 0.00 | 0.00 | 0.00 | 85 | 1007.4 |
| 20260507103228 | 49 | 316 | 8.0 | 14.0 | 0.00 | 0.00 | 0.00 | 85 | 1006.9 |
| 20260507102725 | 48 | 301 | 9.0 | 10.0 | 0.00 | 0.00 | 0.00 | 86 | 1007.1 |
| 20260507102221 | 49 | 309 | 3.0 | 10.0 | 0.00 | 0.00 | 0.00 | 86 | 1007.2 |
| 20260507101717 | 49 | 323 | 5.0 | 11.0 | 0.00 | 0.00 | 0.00 | 86 | 1007.5 |
| 20260507101213 | 49 | 341 | 7.0 | 14.0 | 0.00 | 0.00 | 0.00 | 86 | 1007.1 |
| 20260507100710 | 48 | 344 | 4.0 | 11.0 | 0.00 | 0.00 | 0.00 | 86 | 1006.9 |
| 20260507100209 | 48 | 340 | 5.0 | 5.0 | 0.00 | 0.00 | 0.00 | 87 | 1007.2 |
| 20260507095707 | 49 | 298 | 4.0 | 14.0 | 0.00 | 0.00 | 0.00 | 86 | 1007.4 |
| 20260507095203 | 49 | 317 | 4.0 | 15.0 | 0.00 | 0.00 | 0.00 | 86 | 1007.2 |
| 20260507094659 | 49 | 305 | 8.0 | 11.0 | 0.00 | 0.00 | 0.00 | 86 | 1007.0 |
| 20260507094156 | 49 | 314 | 8.0 | 13.0 | 0.00 | 0.00 | 0.00 | 87 | 1006.9 |
| 20260507093653 | 49 | 306 | 3.0 | 15.0 | 0.00 | 0.00 | 0.00 | 87 | 1006.9 |
| 20260507093152 | 49 | 333 | 0.0 | 7.0 | 0.00 | 0.00 | 0.00 | 87 | 1007.2 |
| 20260507092649 | 49 | 297 | 7.0 | 12.0 | 0.00 | 0.00 | 0.00 | 86 | 1007.2 |
| 20260507092145 | 49 | 284 | 4.0 | 13.0 | 0.00 | 0.00 | 0.00 | 86 | 1007.3 |
| 20260507091642 | 49 | 292 | 3.0 | 11.0 | 0.00 | 0.00 | 0.00 | 86 | 1007.3 |
| 20260507091138 | 49 | 289 | 4.0 | 11.0 | 0.00 | 0.00 | 0.00 | 86 | 1007.1 |
| 20260507090633 | 49 | 281 | 5.0 | 13.0 | 0.00 | 0.00 | 0.00 | 85 | 1007.0 |
| 20260507090131 | 49 | 315 | 6.0 | 12.0 | 0.00 | 0.00 | 0.00 | 85 | 1006.7 |
| 20260507085628 | 49 | 281 | 4.0 | 14.0 | 0.00 | 0.00 | 0.00 | 85 | 1006.6 |
| 20260507085124 | 50 | 283 | 5.0 | 12.0 | 0.00 | 0.00 | 0.00 | 86 | 1006.4 |
| 20260507084621 | 50 | 279 | 4.0 | 14.0 | 0.00 | 0.00 | 0.00 | 85 | 1006.8 |
| 20260507084118 | 50 | 308 | 11.0 | 17.0 | 0.00 | 0.00 | 0.00 | 85 | 1006.6 |
| 20260507083615 | 50 | 324 | 4.0 | 11.0 | 0.00 | 0.00 | 0.00 | 86 | 1006.4 |
| 20260507083112 | 50 | 280 | 5.0 | 11.0 | 0.00 | 0.00 | 0.00 | 86 | 1006.5 |
| 20260507082607 | 50 | 325 | 4.0 | 13.0 | 0.00 | 0.00 | 0.00 | 86 | 1006.1 |
| 20260507082104 | 50 | 294 | 5.0 | 12.0 | 0.00 | 0.00 | 0.00 | 87 | 1006.3 |
| 20260507081600 | 49 | 297 | 9.0 | 10.0 | 0.00 | 0.00 | 0.00 | 88 | 1006.5 |
| 20260507081058 | 50 | 283 | 9.0 | 18.0 | 0.00 | 0.00 | 0.00 | 88 | 1006.6 |
| 20260507080553 | 50 | 272 | 11.0 | 19.0 | 0.00 | 0.00 | 0.00 | 87 | 1006.8 |
| 20260507080050 | 51 | 300 | 6.0 | 15.0 | 0.00 | 0.00 | 0.00 | 85 | 1006.4 |
| 20260507075545 | 51 | 301 | 10.0 | 25.0 | 0.00 | 0.00 | 0.00 | 84 | 1006.5 |
| 20260507075042 | 51 | 295 | 15.0 | 16.0 | 0.00 | 0.00 | 0.00 | 84 | 1006.3 |
| 20260507074539 | 51 | 310 | 9.0 | 15.0 | 0.00 | 0.00 | 0.00 | 84 | 1006.2 |
| 20260507074037 | 51 | 312 | 6.0 | 13.0 | 0.00 | 0.00 | 0.00 | 84 | 1006.4 |
| 20260507073533 | 51 | 294 | 9.0 | 17.0 | 0.00 | 0.00 | 0.00 | 84 | 1006.2 |
| 20260507073030 | 51 | 296 | 6.0 | 13.0 | 0.00 | 0.00 | 0.00 | 85 | 1006.1 |
| 20260507072527 | 51 | 304 | 7.0 | 19.0 | 0.00 | 0.00 | 0.00 | 85 | 1006.1 |
| 20260507072024 | 51 | 308 | 3.0 | 16.0 | 0.00 | 0.00 | 0.00 | 86 | 1006.2 |
| 20260507071522 | 51 | 333 | 11.0 | 13.0 | 0.00 | 0.00 | 0.00 | 87 | 1005.9 |
| 20260507071018 | 52 | 311 | 3.0 | 17.0 | 0.00 | 0.00 | 0.00 | 88 | 1005.9 |
| 20260507070515 | 52 | 293 | 6.0 | 12.0 | 0.00 | 0.00 | 0.00 | 89 | 1006.0 |
| 20260507070013 | 52 | 289 | 6.0 | 11.0 | 0.00 | 0.00 | 0.00 | 90 | 1005.9 |
| 20260507065508 | 52 | 295 | 4.0 | 9.0 | 0.00 | 0.00 | 0.00 | 91 | 1005.8 |
| 20260507065006 | 52 | 291 | 2.0 | 7.0 | 0.00 | 0.00 | 0.00 | 91 | 1005.8 |
| 20260507064504 | 52 | 304 | 5.0 | 10.0 | 0.00 | 0.00 | 0.00 | 91 | 1006.0 |
| 20260507064002 | 52 | 281 | 5.0 | 9.0 | 0.00 | 0.00 | 0.00 | 91 | 1005.6 |
| 20260507063458 | 52 | 288 | 6.0 | 9.0 | 0.00 | 0.00 | 0.00 | 91 | 1005.6 |
| 20260507062955 | 52 | 277 | 3.0 | 8.0 | 0.00 | 0.00 | 0.00 | 90 | 1005.5 |
| 20260507062452 | 53 | 294 | 2.0 | 8.0 | 0.00 | 0.00 | 0.00 | 90 | 1005.4 |
| 20260507061950 | 53 | 289 | 4.0 | 14.0 | 0.00 | 0.00 | 0.00 | 90 | 1005.8 |
| 20260507061448 | 53 | 284 | 4.0 | 11.0 | 0.00 | 0.00 | 0.00 | 90 | 1006.0 |
| 20260507060946 | 53 | 307 | 4.0 | 11.0 | 0.00 | 0.00 | 0.00 | 89 | 1005.7 |
| 20260507060442 | 53 | 281 | 3.0 | 12.0 | 0.00 | 0.00 | 0.00 | 89 | 1005.8 |
| 20260507055939 | 53 | 292 | 5.0 | 14.0 | 0.00 | 0.00 | 0.00 | 90 | 1005.8 |
| 20260507055434 | 53 | 288 | 8.0 | 9.0 | 0.00 | 0.00 | 0.00 | 90 | 1006.0 |
| 20260507054931 | 53 | 289 | 7.0 | 16.0 | 0.00 | 0.00 | 0.00 | 90 | 1006.2 |
| 20260507054427 | 53 | 314 | 3.0 | 10.0 | 0.00 | 0.00 | 0.00 | 90 | 1005.7 |
| 20260507053925 | 53 | 298 | 6.0 | 13.0 | 0.00 | 0.00 | 0.00 | 90 | 1005.6 |
| 20260507053422 | 53 | 296 | 5.0 | 12.0 | 0.00 | 0.00 | 0.00 | 90 | 1005.8 |
| 20260507052921 | 53 | 294 | 7.0 | 14.0 | 0.00 | 0.00 | 0.00 | 90 | 1005.7 |
| 20260507052418 | 53 | 315 | 6.0 | 12.0 | 0.00 | 0.00 | 0.00 | 90 | 1005.6 |
| 20260507051914 | 53 | 317 | 4.0 | 16.0 | 0.00 | 0.00 | 0.00 | 90 | 1005.9 |
| 20260507051412 | 54 | 293 | 4.0 | 9.0 | 0.00 | 0.00 | 0.00 | 91 | 1006.3 |
| 20260507050909 | 54 | 294 | 3.0 | 16.0 | 0.00 | 0.00 | 0.00 | 91 | 1006.0 |
| 20260507050405 | 54 | 298 | 5.0 | 10.0 | 0.00 | 0.00 | 0.00 | 91 | 1006.1 |
| 20260507045902 | 54 | 282 | 7.0 | 9.0 | 0.00 | 0.00 | 0.00 | 92 | 1005.9 |
| 20260507045359 | 54 | 285 | 6.0 | 16.0 | 0.00 | 0.00 | 0.00 | 92 | 1005.8 |
| 20260507044856 | 54 | 285 | 9.0 | 14.0 | 0.00 | 0.00 | 0.00 | 92 | 1005.8 |
| 20260507044353 | 54 | 264 | 5.0 | 17.0 | 0.00 | 0.00 | 0.00 | 92 | 1005.6 |
| 20260507043849 | 54 | 293 | 15.0 | 15.0 | 0.00 | 0.00 | 0.00 | 93 | 1005.6 |
| 20260507043346 | 55 | 318 | 7.0 | 16.0 | 0.00 | 0.00 | 0.00 | 94 | 1005.4 |
| 20260507042842 | 56 | 334 | 6.0 | 11.0 | 0.00 | 0.00 | 0.00 | 94 | 1005.6 |
| 20260507042338 | 56 | 311 | 9.0 | 17.0 | 0.00 | 0.00 | 0.00 | 94 | 1006.0 |
| 20260507041835 | 57 | 299 | 7.0 | 15.0 | 0.00 | 0.00 | 0.00 | 95 | 1005.9 |
| 20260507041331 | 58 | 318 | 4.0 | 7.0 | 0.00 | 0.00 | 0.00 | 96 | 1005.6 |
| 20260507040828 | 59 | 312 | 5.0 | 7.0 | 0.00 | 0.00 | 0.00 | 97 | 1005.7 |
| 20260507040324 | 59 | 271 | 4.0 | 12.0 | 0.00 | 0.00 | 0.00 | 97 | 1005.4 |
| 20260507035820 | 59 | 292 | 2.0 | 7.0 | 0.00 | 0.00 | 0.00 | 97 | 1005.3 |
| 20260507035316 | 59 | 268 | 5.0 | 11.0 | 0.00 | 0.00 | 0.00 | 97 | 1005.4 |
| 20260507034814 | 59 | 264 | 9.0 | 11.0 | 0.00 | 0.00 | 0.00 | 98 | 1005.3 |
| 20260507034310 | 59 | 274 | 4.0 | 11.0 | 0.00 | 0.00 | 0.00 | 98 | 1005.3 |
| 20260507033809 | 59 | 265 | 7.0 | 14.0 | 0.00 | 0.00 | 0.00 | 98 | 1005.0 |
| 20260507033306 | 59 | 255 | 7.0 | 8.0 | 0.00 | 0.00 | 0.00 | 97 | 1004.9 |
| 20260507032803 | 59 | 243 | 5.0 | 11.0 | 0.00 | 0.00 | 0.00 | 97 | 1004.7 |
| 20260507032259 | 59 | 250 | 4.0 | 11.0 | 0.00 | 0.00 | 0.00 | 97 | 1004.8 |
| 20260507031756 | 59 | 251 | 5.0 | 11.0 | 0.00 | 0.00 | 0.00 | 97 | 1004.6 |
| 20260507031253 | 59 | 239 | 3.0 | 12.0 | 0.00 | 0.00 | 0.00 | 97 | 1004.5 |
| 20260507030749 | 59 | 247 | 9.0 | 11.0 | 0.00 | 0.00 | 0.00 | 97 | 1004.5 |
| 20260507030247 | 59 | 211 | 6.0 | 11.0 | 0.00 | 0.00 | 0.00 | 97 | 1004.5 |
| 20260507025744 | 59 | 196 | 5.0 | 13.0 | 0.00 | 0.00 | 0.00 | 97 | 1004.6 |
| 20260507025241 | 59 | 246 | 6.0 | 11.0 | 0.00 | 0.00 | 0.00 | 97 | 1004.6 |
| 20260507024739 | 59 | 212 | 9.0 | 17.0 | 0.00 | 0.00 | 0.00 | 97 | 1004.8 |
| 20260507024236 | 59 | 252 | 4.0 | 7.0 | 0.00 | 0.00 | 0.00 | 97 | 1004.8 |
| 20260507023731 | 59 | 199 | 3.0 | 9.0 | 0.00 | 0.00 | 0.00 | 97 | 1004.9 |
| 20260507023229 | 59 | 210 | 5.0 | 7.0 | 0.00 | 0.00 | 0.00 | 97 | 1004.5 |
| 20260507022726 | 59 | 233 | 5.0 | 12.0 | 0.00 | 0.00 | 0.00 | 97 | 1004.8 |
| 20260507022222 | 59 | 222 | 8.0 | 9.0 | 0.00 | 0.00 | 0.00 | 97 | 1004.5 |
| 20260507021718 | 59 | 191 | 5.0 | 6.0 | 0.00 | 0.00 | 0.00 | 97 | 1004.6 |
| 20260507021214 | 59 | 207 | 3.0 | 6.0 | 0.00 | 0.00 | 0.00 | 97 | 1004.6 |
| 20260507020712 | 59 | 232 | 7.0 | 10.0 | 0.00 | 0.00 | 0.00 | 97 | 1004.6 |
| 20260507020208 | 59 | 230 | 3.0 | 11.0 | 0.00 | 0.00 | 0.00 | 97 | 1005.0 |
| 20260507015706 | 59 | 226 | 5.0 | 11.0 | 0.00 | 0.00 | 0.00 | 97 | 1005.0 |
| 20260507015203 | 59 | 204 | 5.0 | 12.0 | 0.00 | 0.00 | 0.00 | 97 | 1004.9 |
| 20260507014700 | 59 | 217 | 5.0 | 11.0 | 0.00 | 0.00 | 0.00 | 97 | 1005.0 |
| 20260507014156 | 59 | 224 | 7.0 | 15.0 | 0.00 | 0.00 | 0.00 | 97 | 1005.0 |
| 20260507013653 | 59 | 212 | 9.0 | 11.0 | 0.00 | 0.00 | 0.00 | 97 | 1005.0 |
| 20260507013150 | 59 | 243 | 9.0 | 10.0 | 0.00 | 0.00 | 0.00 | 97 | 1005.1 |
| 20260507012648 | 59 | 208 | 4.0 | 13.0 | 0.00 | 0.00 | 0.00 | 97 | 1004.9 |
| 20260507012143 | 58 | 215 | 6.0 | 13.0 | 0.00 | 0.00 | 0.00 | 97 | 1005.0 |
| 20260507011641 | 58 | 207 | 5.0 | 11.0 | 0.00 | 0.00 | 0.00 | 98 | 1005.1 |
| 20260507011137 | 58 | 196 | 5.0 | 10.0 | 0.00 | 0.00 | 0.00 | 98 | 1005.1 |
| 20260507010632 | 58 | 198 | 3.0 | 14.0 | 0.00 | 0.00 | 0.00 | 98 | 1004.7 |
| 20260507010128 | 58 | 218 | 7.0 | 19.0 | 0.00 | 0.00 | 0.00 | 98 | 1005.0 |
| 20260507005626 | 58 | 208 | 7.0 | 19.0 | 0.00 | 0.00 | 0.00 | 98 | 1005.0 |
| 20260507005121 | 58 | 224 | 7.0 | 12.0 | 0.00 | 0.00 | 0.00 | 98 | 1005.0 |
| 20260507004619 | 58 | 210 | 6.0 | 11.0 | 0.00 | 0.00 | 0.00 | 98 | 1005.0 |
| 20260507004116 | 58 | 196 | 6.0 | 10.0 | 0.00 | 0.00 | 0.00 | 98 | 1005.0 |
| 20260507003612 | 58 | 180 | 5.0 | 10.0 | 0.00 | 0.00 | 0.00 | 98 | 1005.0 |
| 20260507003107 | 58 | 205 | 13.0 | 14.0 | 0.00 | 0.00 | 0.00 | 98 | 1005.1 |
| 20260507002604 | 58 | 187 | 6.0 | 12.0 | 0.00 | 0.00 | 0.00 | 98 | 1005.1 |
| 20260507002059 | 58 | 193 | 6.0 | 14.0 | 0.00 | 0.00 | 0.00 | 98 | 1004.8 |
| 20260507001557 | 58 | 190 | 8.0 | 10.0 | 0.00 | 0.00 | 0.00 | 98 | 1004.7 |
| 20260507001054 | 58 | 212 | 10.0 | 11.0 | 0.00 | 0.00 | 0.00 | 98 | 1004.7 |
| 20260507000550 | 58 | 178 | 5.0 | 10.0 | 0.00 | 0.00 | 0.00 | 98 | 1004.8 |
| 20260507000046 | 58 | 193 | 9.0 | 12.0 | 0.00 | 0.00 | 0.00 | 98 | 1004.7 |
| 20260506235543 | 58 | 191 | 11.0 | 11.0 | 0.00 | 0.00 | 0.00 | 97 | 1004.8 |
| 20260506235038 | 58 | 195 | 14.0 | 14.0 | 0.00 | 0.00 | 0.00 | 97 | 1004.5 |
| 20260506234536 | 59 | 180 | 9.0 | 10.0 | 0.00 | 0.00 | 0.00 | 97 | 1004.7 |
| 20260506234033 | 59 | 198 | 5.0 | 15.0 | 0.00 | 0.00 | 0.00 | 97 | 1004.9 |
| 20260506233530 | 59 | 176 | 6.0 | 12.0 | 0.00 | 0.00 | 0.00 | 97 | 1004.7 |
| 20260506233027 | 59 | 196 | 4.0 | 13.0 | 0.00 | 0.00 | 0.00 | 96 | 1004.8 |
| 20260506232523 | 59 | 197 | 11.0 | 14.0 | 0.00 | 0.00 | 0.00 | 96 | 1004.7 |
| 20260506232018 | 60 | 159 | 5.0 | 11.0 | 0.00 | 0.00 | 0.00 | 96 | 1005.0 |
| 20260506231516 | 60 | 200 | 8.0 | 10.0 | 0.00 | 0.00 | 0.00 | 96 | 1004.8 |
| 20260506231014 | 60 | 204 | 7.0 | 15.0 | 0.00 | 0.00 | 0.00 | 96 | 1004.8 |
| 20260506230510 | 60 | 218 | 8.0 | 12.0 | 0.00 | 0.00 | 0.00 | 96 | 1004.9 |
| 20260506230008 | 60 | 203 | 9.0 | 10.0 | 0.00 | 0.00 | 0.00 | 96 | 1005.0 |
| 20260506225504 | 60 | 182 | 5.0 | 10.0 | 0.00 | 0.00 | 0.00 | 96 | 1005.0 |
| 20260506225001 | 60 | 200 | 8.0 | 9.0 | 0.00 | 0.00 | 0.00 | 96 | 1004.8 |
| 20260506224458 | 60 | 201 | 6.0 | 9.0 | 0.00 | 0.00 | 0.00 | 95 | 1004.8 |
| 20260506223954 | 60 | 177 | 7.0 | 14.0 | 0.00 | 0.00 | 0.00 | 95 | 1004.9 |
| 20260506223450 | 60 | 193 | 10.0 | 14.0 | 0.00 | 0.00 | 0.00 | 94 | 1005.2 |
| 20260506222948 | 60 | 184 | 5.0 | 13.0 | 0.00 | 0.00 | 0.00 | 94 | 1005.3 |
| 20260506222444 | 60 | 221 | 11.0 | 11.0 | 0.00 | 0.00 | 0.00 | 94 | 1004.9 |
| 20260506221941 | 60 | 199 | 6.0 | 14.0 | 0.00 | 0.00 | 0.00 | 94 | 1005.2 |
| 20260506221438 | 60 | 206 | 9.0 | 11.0 | 0.00 | 0.00 | 0.00 | 95 | 1005.2 |
| 20260506220936 | 60 | 177 | 6.0 | 13.0 | 0.00 | 0.00 | 0.00 | 95 | 1005.1 |
| 20260506220431 | 60 | 209 | 14.0 | 15.0 | 0.00 | 0.00 | 0.00 | 95 | 1005.1 |
| 20260506215928 | 60 | 172 | 8.0 | 12.0 | 0.00 | 0.00 | 0.00 | 95 | 1005.7 |
| 20260506215424 | 60 | 169 | 8.0 | 13.0 | 0.00 | 0.00 | 0.00 | 95 | 1005.4 |
| 20260506214920 | 60 | 209 | 5.0 | 14.0 | 0.00 | 0.00 | 0.00 | 95 | 1005.6 |
| 20260506214417 | 60 | 193 | 5.0 | 11.0 | 0.00 | 0.00 | 0.00 | 95 | 1005.5 |
| 20260506213914 | 60 | 208 | 6.0 | 11.0 | 0.00 | 0.00 | 0.00 | 95 | 1005.7 |
| 20260506213412 | 60 | 186 | 7.0 | 11.0 | 0.00 | 0.00 | 0.00 | 95 | 1005.6 |
| 20260506212909 | 60 | 192 | 5.0 | 12.0 | 0.00 | 0.00 | 0.00 | 95 | 1005.6 |
| 20260506212405 | 60 | 211 | 6.0 | 11.0 | 0.00 | 0.00 | 0.00 | 95 | 1005.7 |
| 20260506211900 | 60 | 203 | 7.0 | 13.0 | 0.00 | 0.00 | 0.00 | 95 | 1005.8 |
| 20260506211356 | 60 | 203 | 8.0 | 14.0 | 0.00 | 0.00 | 0.00 | 95 | 1005.9 |
| 20260506210854 | 60 | 175 | 7.0 | 13.0 | 0.00 | 0.00 | 0.00 | 95 | 1005.9 |
| 20260506210350 | 60 | 180 | 10.0 | 12.0 | 0.00 | 0.00 | 0.00 | 95 | 1005.8 |
| 20260506205848 | 60 | 204 | 4.0 | 10.0 | 0.00 | 0.00 | 0.00 | 95 | 1006.0 |
| 20260506205343 | 60 | 200 | 5.0 | 12.0 | 0.00 | 0.00 | 0.00 | 94 | 1005.8 |
| 20260506204840 | 60 | 181 | 6.0 | 10.0 | 0.00 | 0.00 | 0.00 | 94 | 1006.1 |
| 20260506204338 | 60 | 166 | 5.0 | 9.0 | 0.00 | 0.00 | 0.00 | 93 | 1006.1 |
| 20260506203835 | 61 | 195 | 7.0 | 10.0 | 0.00 | 0.00 | 0.00 | 92 | 1006.0 |
| 20260506203332 | 61 | 192 | 6.0 | 10.0 | 0.00 | 0.00 | 0.00 | 91 | 1005.9 |
| 20260506202829 | 61 | 201 | 6.0 | 13.0 | 0.00 | 0.00 | 0.00 | 90 | 1006.0 |
| 20260506202326 | 62 | 194 | 8.0 | 12.0 | 0.00 | 0.00 | 0.00 | 89 | 1005.8 |
| 20260506201822 | 62 | 194 | 7.0 | 13.0 | 0.00 | 0.00 | 0.00 | 89 | 1005.8 |
| 20260506201320 | 62 | 180 | 8.0 | 14.0 | 0.00 | 0.00 | 0.00 | 88 | 1005.7 |
| 20260506200817 | 62 | 197 | 10.0 | 16.0 | 0.00 | 0.00 | 0.00 | 87 | 1005.6 |
| 20260506200313 | 62 | 185 | 8.0 | 17.0 | 0.00 | 0.00 | 0.00 | 87 | 1005.5 |
| 20260506195809 | 63 | 170 | 11.0 | 14.0 | 0.00 | 0.00 | 0.00 | 87 | 1005.9 |
| 20260506195306 | 63 | 176 | 8.0 | 14.0 | 0.00 | 0.00 | 0.00 | 86 | 1005.9 |
| 20260506194803 | 63 | 189 | 6.0 | 10.0 | 0.00 | 0.00 | 0.00 | 85 | 1005.8 |
| 20260506194259 | 64 | 177 | 5.0 | 12.0 | 0.00 | 0.00 | 0.00 | 84 | 1005.9 |
| 20260506193757 | 64 | 184 | 11.0 | 13.0 | 0.00 | 0.00 | 0.00 | 83 | 1006.3 |
| 20260506193254 | 64 | 207 | 9.0 | 15.0 | 0.00 | 0.00 | 0.00 | 82 | 1005.8 |
| 20260506192750 | 64 | 177 | 4.0 | 14.0 | 0.00 | 0.00 | 0.00 | 82 | 1006.0 |
| 20260506192247 | 64 | 196 | 6.0 | 11.0 | 0.00 | 0.00 | 0.00 | 82 | 1006.0 |
| 20260506191744 | 64 | 179 | 6.0 | 10.0 | 0.00 | 0.00 | 0.00 | 83 | 1005.9 |
| 20260506191240 | 64 | 187 | 6.0 | 10.0 | 0.00 | 0.00 | 0.00 | 83 | 1006.0 |
| 20260506190738 | 64 | 185 | 10.0 | 11.0 | 0.00 | 0.00 | 0.00 | 82 | 1005.9 |
| 20260506190234 | 64 | 176 | 10.0 | 12.0 | 0.00 | 0.00 | 0.00 | 80 | 1005.9 |
| 20260506185731 | 65 | 180 | 15.0 | 15.0 | 0.00 | 0.00 | 0.00 | 78 | 1005.9 |
| 20260506185227 | 67 | 201 | 11.0 | 19.0 | 0.00 | 0.00 | 0.00 | 74 | 1005.8 |
| 20260506184725 | 67 | 199 | 7.0 | 14.0 | 0.00 | 0.00 | 0.00 | 73 | 1006.0 |
| 20260506184222 | 67 | 181 | 10.0 | 17.0 | 0.00 | 0.00 | 0.00 | 71 | 1005.8 |
| 20260506183719 | 68 | 195 | 9.0 | 18.0 | 0.00 | 0.00 | 0.00 | 70 | 1005.8 |
| 20260506183215 | 67 | 169 | 10.0 | 14.0 | 0.00 | 0.00 | 0.00 | 71 | 1005.9 |
| 20260506182712 | 68 | 176 | 12.0 | 20.0 | 0.00 | 0.00 | 0.00 | 70 | 1006.1 |
| 20260506182209 | 68 | 166 | 10.0 | 17.0 | 0.00 | 0.00 | 0.00 | 70 | 1006.1 |
| 20260506181707 | 68 | 174 | 14.0 | 21.0 | 0.00 | 0.00 | 0.00 | 69 | 1006.1 |
| 20260506181204 | 69 | 171 | 10.0 | 24.0 | 0.00 | 0.00 | 0.00 | 67 | 1006.1 |
| 20260506180701 | 69 | 174 | 10.0 | 17.0 | 0.00 | 0.00 | 0.00 | 69 | 1006.4 |
| 20260506180157 | 69 | 168 | 16.0 | 20.0 | 0.00 | 0.00 | 0.00 | 69 | 1006.3 |
| 20260506175654 | 69 | 182 | 11.0 | 20.0 | 0.00 | 0.00 | 0.00 | 68 | 1006.6 |
| 20260506175151 | 69 | 175 | 11.0 | 22.0 | 0.00 | 0.00 | 0.00 | 69 | 1006.4 |
| 20260506174649 | 69 | 183 | 18.0 | 28.0 | 0.00 | 0.00 | 0.00 | 68 | 1006.4 |
| 20260506174145 | 69 | 182 | 13.0 | 28.0 | 0.00 | 0.00 | 0.00 | 67 | 1006.4 |
| 20260506173643 | 70 | 190 | 12.0 | 28.0 | 0.00 | 0.00 | 0.00 | 66 | 1006.3 |
| 20260506173140 | 70 | 198 | 19.0 | 24.0 | 0.00 | 0.00 | 0.00 | 66 | 1006.6 |
| 20260506172637 | 69 | 191 | 9.0 | 26.0 | 0.00 | 0.00 | 0.00 | 68 | 1006.6 |
| 20260506172133 | 69 | 194 | 22.0 | 27.0 | 0.00 | 0.00 | 0.00 | 68 | 1006.9 |
| 20260506171631 | 69 | 176 | 16.0 | 22.0 | 0.00 | 0.00 | 0.00 | 68 | 1006.8 |
| 20260506171129 | 69 | 175 | 16.0 | 18.0 | 0.00 | 0.00 | 0.00 | 68 | 1006.7 |
| 20260506170626 | 69 | 181 | 11.0 | 26.0 | 0.00 | 0.00 | 0.00 | 68 | 1006.8 |
| 20260506170123 | 68 | 198 | 16.0 | 25.0 | 0.00 | 0.00 | 0.00 | 68 | 1006.9 |
| 20260506165621 | 69 | 191 | 11.0 | 17.0 | 0.00 | 0.00 | 0.00 | 68 | 1007.0 |
| 20260506165117 | 69 | 204 | 21.0 | 25.0 | 0.00 | 0.00 | 0.00 | 67 | 1006.9 |
| 20260506164614 | 69 | 180 | 15.0 | 26.0 | 0.00 | 0.00 | 0.00 | 67 | 1006.8 |
| 20260506164112 | 69 | 197 | 13.0 | 25.0 | 0.00 | 0.00 | 0.00 | 67 | 1007.2 |
| 20260506163607 | 69 | 171 | 17.0 | 22.0 | 0.00 | 0.00 | 0.00 | 68 | 1007.0 |
| 20260506163103 | 69 | 176 | 8.0 | 24.0 | 0.00 | 0.00 | 0.00 | 67 | 1007.2 |
| 20260506162600 | 69 | 181 | 11.0 | 26.0 | 0.00 | 0.00 | 0.00 | 68 | 1007.3 |
| 20260506162057 | 69 | 165 | 17.0 | 22.0 | 0.00 | 0.00 | 0.00 | 68 | 1007.5 |
| 20260506161555 | 69 | 161 | 14.0 | 24.0 | 0.00 | 0.00 | 0.00 | 68 | 1007.5 |
| 20260506161051 | 70 | 168 | 10.0 | 18.0 | 0.00 | 0.00 | 0.00 | 67 | 1007.6 |
| 20260506160549 | 70 | 177 | 10.0 | 19.0 | 0.00 | 0.00 | 0.00 | 67 | 1007.5 |
| 20260506160045 | 71 | 172 | 11.0 | 15.0 | 0.00 | 0.00 | 0.00 | 66 | 1007.8 |
| 20260506155544 | 70 | 171 | 11.0 | 18.0 | 0.00 | 0.00 | 0.00 | 66 | 1008.0 |
| 20260506153715 | 70 | 188 | 13.0 | 18.0 | 0.00 | 0.00 | 0.00 | 66 | 1008.4 |
| 20260506153213 | 71 | 180 | 11.0 | 22.0 | 0.00 | 0.00 | 0.00 | 65 | 1008.2 |
| 20260506152709 | 70 | 210 | 7.0 | 16.0 | 0.00 | 0.00 | 0.00 | 66 | 1008.6 |
| 20260506152207 | 70 | 180 | 5.0 | 23.0 | 0.00 | 0.00 | 0.00 | 66 | 1008.4 |
| 20260506151706 | 70 | 211 | 5.0 | 14.0 | 0.00 | 0.00 | 0.00 | 67 | 1008.4 |
| 20260506151202 | 70 | 210 | 8.0 | 19.0 | 0.00 | 0.00 | 0.00 | 67 | 1008.6 |
| 20260506150658 | 70 | 231 | 9.0 | 15.0 | 0.00 | 0.00 | 0.00 | 67 | 1008.6 |
| 20260506150155 | 70 | 230 | 15.0 | 23.0 | 0.00 | 0.00 | 0.00 | 66 | 1008.6 |
| 20260506145652 | 70 | 200 | 13.0 | 18.0 | 0.00 | 0.00 | 0.00 | 67 | 1008.7 |
| 20260506145149 | 70 | 173 | 15.0 | 19.0 | 0.00 | 0.00 | 0.00 | 67 | 1008.3 |
| 20260506144647 | 70 | 212 | 5.0 | 21.0 | 0.00 | 0.00 | 0.00 | 66 | 1008.5 |
| 20260506144143 | 70 | 189 | 10.0 | 19.0 | 0.00 | 0.00 | 0.00 | 65 | 1008.5 |
| 20260506143641 | 71 | 228 | 15.0 | 20.0 | 0.00 | 0.00 | 0.00 | 66 | 1008.3 |
| 20260506143139 | 70 | 236 | 18.0 | 21.0 | 0.00 | 0.00 | 0.00 | 68 | 1008.6 |
| 20260506142637 | 69 | 181 | 12.0 | 23.0 | 0.00 | 0.00 | 0.00 | 68 | 1008.3 |
| 20260506142135 | 68 | 193 | 11.0 | 22.0 | 0.00 | 0.00 | 0.00 | 70 | 1008.3 |
| 20260506141632 | 69 | 212 | 16.0 | 20.0 | 0.00 | 0.00 | 0.00 | 69 | 1008.5 |
| 20260506141130 | 68 | 208 | 17.0 | 25.0 | 0.00 | 0.00 | 0.00 | 71 | 1008.4 |
| 20260506140628 | 68 | 217 | 15.0 | 26.0 | 0.00 | 0.00 | 0.00 | 70 | 1008.6 |
| 20260506140125 | 68 | 220 | 16.0 | 25.0 | 0.00 | 0.00 | 0.00 | 70 | 1008.6 |
| 20260506135621 | 68 | 204 | 11.0 | 14.0 | 0.00 | 0.00 | 0.00 | 71 | 1008.6 |
| 20260506135118 | 67 | 218 | 11.0 | 22.0 | 0.00 | 0.00 | 0.00 | 72 | 1008.6 |
| 20260506134614 | 67 | 246 | 7.0 | 22.0 | 0.00 | 0.00 | 0.00 | 73 | 1008.7 |
| 20260506134110 | 67 | 216 | 13.0 | 22.0 | 0.00 | 0.00 | 0.00 | 73 | 1008.9 |
| 20260506133608 | 66 | 241 | 7.0 | 14.0 | 0.00 | 0.00 | 0.00 | 74 | 1009.0 |
| 20260506133104 | 66 | 212 | 7.0 | 24.0 | 0.00 | 0.00 | 0.00 | 73 | 1009.1 |
| 20260506132602 | 66 | 215 | 9.0 | 16.0 | 0.00 | 0.00 | 0.00 | 73 | 1008.9 |
| 20260506132059 | 66 | 177 | 8.0 | 12.0 | 0.00 | 0.00 | 0.00 | 74 | 1008.8 |
| 20260506131556 | 66 | 234 | 13.0 | 21.0 | 0.00 | 0.00 | 0.00 | 74 | 1008.7 |
| 20260506131052 | 66 | 211 | 9.0 | 19.0 | 0.00 | 0.00 | 0.00 | 75 | 1008.8 |
| 20260506130549 | 66 | 183 | 9.0 | 14.0 | 0.00 | 0.00 | 0.00 | 75 | 1009.0 |
| 20260506130047 | 66 | 235 | 12.0 | 24.0 | 0.00 | 0.00 | 0.00 | 74 | 1009.1 |
| 20260506125545 | 66 | 207 | 11.0 | 20.0 | 0.00 | 0.00 | 0.00 | 74 | 1008.8 |
| 20260506125042 | 65 | 217 | 6.0 | 12.0 | 0.00 | 0.00 | 0.00 | 75 | 1008.9 |
| 20260506124540 | 65 | 233 | 12.0 | 23.0 | 0.00 | 0.00 | 0.00 | 76 | 1009.0 |
| 20260506124038 | 64 | 231 | 9.0 | 15.0 | 0.00 | 0.00 | 0.00 | 77 | 1009.2 |
| 20260506123535 | 64 | 247 | 7.0 | 20.0 | 0.00 | 0.00 | 0.00 | 77 | 1009.2 |
| 20260506123033 | 64 | 199 | 13.0 | 18.0 | 0.00 | 0.00 | 0.00 | 77 | 1009.2 |
| 20260506122529 | 64 | 241 | 9.0 | 19.0 | 0.00 | 0.00 | 0.00 | 77 | 1009.2 |
| 20260506122028 | 64 | 208 | 9.0 | 18.0 | 0.00 | 0.00 | 0.00 | 77 | 1009.1 |
| 20260506121525 | 64 | 233 | 10.0 | 22.0 | 0.00 | 0.00 | 0.00 | 77 | 1008.9 |
| 20260506121021 | 64 | 197 | 13.0 | 22.0 | 0.00 | 0.00 | 0.00 | 78 | 1009.1 |
| 20260506120519 | 64 | 237 | 5.0 | 20.0 | 0.00 | 0.00 | 0.00 | 78 | 1009.3 |
| 20260506120016 | 63 | 208 | 8.0 | 17.0 | 0.00 | 0.00 | 0.00 | 78 | 1009.0 |
| 20260506115514 | 63 | 204 | 5.0 | 20.0 | 0.00 | 0.00 | 0.00 | 78 | 1009.3 |
| 20260506115012 | 63 | 221 | 13.0 | 13.0 | 0.00 | 0.00 | 0.00 | 79 | 1009.3 |
| 20260506114509 | 63 | 221 | 8.0 | 20.0 | 0.00 | 0.00 | 0.00 | 79 | 1009.5 |
| 20260506114008 | 63 | 228 | 7.0 | 19.0 | 0.00 | 0.00 | 0.00 | 79 | 1009.5 |
| 20260506113505 | 63 | 213 | 17.0 | 21.0 | 0.00 | 0.00 | 0.00 | 79 | 1009.3 |
| 20260506113002 | 63 | 225 | 10.0 | 17.0 | 0.00 | 0.00 | 0.00 | 79 | 1009.5 |
| 20260506112459 | 63 | 224 | 11.0 | 14.0 | 0.00 | 0.00 | 0.00 | 79 | 1009.4 |
| 20260506111956 | 63 | 209 | 7.0 | 15.0 | 0.00 | 0.00 | 0.00 | 79 | 1009.2 |
| 20260506111454 | 62 | 237 | 11.0 | 15.0 | 0.00 | 0.00 | 0.00 | 80 | 1009.6 |
| 20260506110951 | 62 | 190 | 5.0 | 19.0 | 0.00 | 0.00 | 0.00 | 80 | 1009.4 |
| 20260506110449 | 62 | 204 | 10.0 | 17.0 | 0.00 | 0.00 | 0.00 | 80 | 1009.4 |
| 20260506105945 | 62 | 189 | 10.0 | 16.0 | 0.00 | 0.00 | 0.00 | 80 | 1009.4 |
| 20260506105442 | 62 | 211 | 10.0 | 15.0 | 0.00 | 0.00 | 0.00 | 81 | 1009.1 |